STARLINK-35310, 66183

Orbit data source: Space-Track

STARLINK-35310, 66183 is a payload satellite owned by SpaceX/Seattle (US) in LEO that was launched on Sun, 26 Oct 2025 UTC via an FALCON 9 launch vehicle from the Air Force Eastern Test Range (AFETR). Payload-class satellites include a variety of spacecraft equipped with specific instruments for various scientific and technological missions. These include communications satellites like Starlink; space stations such as the ISS; scientific satellites like the Hubble; Earth observation satellites from companies like Planet Labs, Umbra, and HawkEye 360; GPS; miniature CubeSats for education and research; and military/defense satellites.

Loading next visibility...
Identifier
66183, 2025-243G
Orbit
LEO
Country
Flag of USUS
Related business
Manufacturer
SpaceX/Seattle
Mission
Operational Commercial Communications
Bus & Motor
STARLINK V2MO, Unknown motor
Mass
575 kg wet, ~530 kg dry
Launch date (UTC)
2025-10-26 (4 months ago)
Launch vehicle
FALCON 9
Launch site
Air Force Eastern Test Range (AFETR)
Object type
Payload
Rocket body
Debris
Shape & HBR
Box + 2 Pan, 17.7 m
Radar Cross Section
36.964 m²

Expand to show TLE details & history
Last TLE update: 9 hours ago

TLE from 9 hours ago
0 STARLINK-35310
1 66183U 25243G   26061.78900564  .00024747  00000-0  84463-3 0  9996
2 66183  53.1578 277.5602 0001671 107.9107 252.2076 15.30209028 19592
Epoch: 2026-03-02T18:56Z
TLE epoch observation values (Epoch: 2026-03-02T18:56:10.087Z)
Latitude
-0.00001°
Longitude
-167.05922°
Altitude
476.438 km
Speed
7.629 km/s
True Right ascension
18h 30m 14s
True Declination
0° 00' 00"
Sunlit
Object was in daylight at epoch
Visualization orbit readout
Latitude
Unknown
Longitude
Unknown
Altitude
Unknown
Speed
Unknown
Apparent Right ascension
Unknown
Apparent Declination
Unknown
Sunlit
N/A
Visualization observer readout
Local Sidereal Time
07:11:08
Azimuth
Unknown
Elevation
Unknown
Doppler factor
Unknown
Orbital elements
Apogee altitude
476.59 km
Perigee altitude
474.3 km
Semi-major axis
6,853.582 km
Eccentricity
0.00017
Inclination
53.1578°
RAAN
277.5602°
Arg. of periapsis
107.9107°
True anomaly
252.18937°
Mean anomaly
252.2076°
Eccentric anomaly
252.19848°
Mean motion
3.82531 °/min
Orbital period
94.11 mins
BSTAR
0.00084463
Loading maneuver chart data...
Computing Atmospheric mass density...
Loading historical data...
Loading historical data...
Loading historical data...
Loading historical data...
Loading historical data...
Loading historical data...
Loading historical data...

Documentation

Showing up to 5 results
|